Simultaneous Nadir Overpasses (SNOs) Predictions

Prediction of SNOs between GOES-15 and FY3D Satellite Orbit:

Table of predicted SNOs for the next 14.0 days since TLE Epoch: 3/19/2022
Index Date Time (GOES-15) GOES-15 Lat,Lon FY3D Lat,Lon Distance(km) Time Diff (sec)
1 03/19/2022 10:13:41 0.08,-128.10 -0.13,-127.20 102.65 80
2 03/21/2022 22:20:27 -0.08,-128.18 -0.10,-128.17 2.25 80
3 03/24/2022 10:24:23 0.09,-128.24 0.30,-129.11 99.69 80
4 03/25/2022 10:03:20 0.09,-128.26 -0.69,-124.66 409.93 80
5 03/26/2022 22:25:49 -0.10,-128.29 -0.53,-130.08 204.53 80
6 03/27/2022 22:10:07 -0.10,-128.31 0.52,-125.64 305.12 80
7 03/29/2022 10:32:26 0.11,-128.34 0.72,-131.02 305.41 80
8 03/30/2022 10:11:23 0.11,-128.36 -0.28,-126.56 204.08 80
9 03/31/2022 22:33:52 -0.11,-128.39 -0.94,-131.99 410.73 80
10 04/01/2022 22:18:09 -0.11,-128.41 0.11,-127.55 98.85 80
